timestamp,surface_pressure_avg,surface_temp_avg,battery_voltage,lat,long
2020-01-16 00:09:01+00:00,250.0948,0.3,12.65,47.84626,-54.09684
2020-01-16 00:19:01+00:00,246.8181,0.2,12.65,47.84626,-54.09684
2020-01-16 00:29:01+00:00,247.1281,0.0,12.65,47.84626,-54.09684
2020-01-16 00:39:01+00:00,253.7797,0.01,12.65,47.84626,-54.09684
2020-01-16 00:49:01+00:00,253.82299999999998,0.16,12.65,47.84626,-54.09684
2020-01-16 00:59:01+00:00,253.5164,0.33,12.65,47.84626,-54.09684
2020-01-16 01:09:01+00:00,260.1681,0.49,12.65,47.84626,-54.09684
2020-01-16 01:19:01+00:00,272.0014,0.69,12.57,47.84626,-54.09684
2020-01-16 01:29:01+00:00,278.343,0.6,12.57,47.84626,-54.09684
2020-01-16 01:39:01+00:00,282.923,0.22,12.57,47.84626,-54.09684
2020-01-16 01:49:01+00:00,292.0463,-0.1,12.57,47.84626,-54.09684
2020-01-16 01:59:01+00:00,302.4813,-0.02,12.57,47.84626,-54.09684
2020-01-16 02:09:01+00:00,308.8513,0.1,12.57,47.84626,-54.09684
2020-01-16 02:19:01+00:00,315.613,0.34,12.57,47.84626,-54.09684
2020-01-16 02:29:01+00:00,322.8546,0.52,12.57,47.84626,-54.09684
2020-01-16 02:39:01+00:00,330.7263,0.7,12.57,47.84626,-54.09684
2020-01-16 02:49:01+00:00,336.048,0.6,12.57,47.84626,-54.09684
2020-01-16 02:59:01+00:00,339.7614,0.87,12.57,47.84626,-54.09684
2020-01-16 03:09:01+00:00,340.8745,1.02,12.57,47.84626,-54.09684
2020-01-16 03:19:01+00:00,347.9713,1.0,12.57,47.84626,-54.09684
2020-01-16 03:29:01+00:00,352.1828,1.02,12.57,47.84626,-54.09684
2020-01-16 03:39:01+00:00,352.1763,1.26,12.57,47.84626,-54.09684
2020-01-16 03:49:01+00:00,352.343,1.3,12.57,47.84626,-54.09684
2020-01-16 03:59:01+00:00,354.8647,1.3,12.57,47.84626,-54.09684
2020-01-16 04:09:01+00:00,355.0647,1.2,12.57,47.84626,-54.09684
2020-01-16 04:19:01+00:00,354.4064,1.05,12.49,47.84626,-54.09684
2020-01-16 04:29:01+00:00,353.5013,1.07,12.49,47.84626,-54.09684
2020-01-16 04:39:01+00:00,349.968,1.0,12.49,47.84626,-54.09684
2020-01-16 04:49:01+00:00,348.2629,0.9,12.49,47.84626,-54.09684
2020-01-16 04:59:01+00:00,347.17800000000005,0.8,12.49,47.84626,-54.09684
2020-01-16 05:09:01+00:00,343.6646,0.7,12.49,47.84626,-54.09684
2020-01-16 05:19:01+00:00,335.8213,0.6,12.49,47.84626,-54.09684
2020-01-16 05:29:01+00:00,329.5263,0.5,12.49,47.84626,-54.09684
2020-01-16 05:39:01+00:00,323.2496,0.48,12.49,47.84626,-54.09684
2020-01-16 05:49:01+00:00,317.593,0.4,12.49,47.84626,-54.09684
2020-01-16 05:59:01+00:00,312.3364,0.4,12.49,47.84626,-54.09684
2020-01-16 06:09:01+00:00,302.9814,0.4,12.49,47.84626,-54.09684
2020-01-16 06:19:01+00:00,292.1364,0.39,12.49,47.84626,-54.09684
2020-01-16 06:29:01+00:00,285.7047,0.3,12.49,47.84626,-54.09684
2020-01-16 06:39:01+00:00,280.8647,0.3,12.49,47.84626,-54.09684
2020-01-16 06:49:01+00:00,271.048,0.35,12.49,47.84626,-54.09684
2020-01-16 06:59:01+00:00,261.1997,0.4,12.49,47.84626,-54.09684
2020-01-16 07:09:01+00:00,255.4664,0.46,12.49,47.84626,-54.09684
2020-01-16 07:19:01+00:00,246.1548,0.56,12.49,47.84626,-54.09684
2020-01-16 07:29:01+00:00,237.1431,0.7,12.49,47.84626,-54.09684
2020-01-16 07:39:01+00:00,232.683,0.8,12.49,47.84626,-54.09684
2020-01-16 07:49:01+00:00,222.7698,0.94,12.49,47.84626,-54.09684
2020-01-16 07:59:01+00:00,211.0115,1.0,12.49,47.84626,-54.09684
2020-01-16 08:09:01+00:00,212.9031,1.07,12.49,47.84626,-54.09684
2020-01-16 08:19:01+00:00,215.1664,1.13,12.49,47.84626,-54.09684
2020-01-16 08:29:01+00:00,207.2647,1.19,12.49,47.84626,-54.09684
2020-01-16 08:39:01+00:00,199.4814,1.0,12.49,47.84626,-54.09684
2020-01-16 08:49:01+00:00,199.0065,0.9,12.49,47.84626,-54.09684
2020-01-16 08:59:01+00:00,198.9315,0.89,12.49,47.84626,-54.09684
2020-01-16 09:09:01+00:00,197.9615,0.7,12.49,47.84626,-54.09684
2020-01-16 09:19:01+00:00,198.5231,0.6,12.49,47.84626,-54.09684
2020-01-16 09:29:01+00:00,197.4249,0.4,12.49,47.84626,-54.09684
2020-01-16 09:39:01+00:00,197.4815,0.2,12.49,47.84626,-54.09684
2020-01-16 09:49:01+00:00,199.1197,0.1,12.49,47.84626,-54.09684
2020-01-16 09:59:01+00:00,199.3131,-0.01,12.49,47.84626,-54.09684
2020-01-16 10:09:01+00:00,198.8665,-0.1,12.49,47.84626,-54.09684
2020-01-16 10:19:01+00:00,204.9048,-0.1,12.49,47.84626,-54.09684
2020-01-16 10:29:01+00:00,214.4132,-0.08,12.49,47.84626,-54.09684
2020-01-16 10:39:01+00:00,213.3631,-0.0,12.49,47.84626,-54.09684
2020-01-16 10:49:01+00:00,212.6898,0.0,12.49,47.84626,-54.09684
2020-01-16 10:59:01+00:00,224.1064,0.09,12.49,47.84626,-54.09684
2020-01-16 11:09:01+00:00,229.6598,0.15,12.49,47.84626,-54.09684
2020-01-16 11:19:01+00:00,225.8531,0.2,12.49,47.84626,-54.09684
2020-01-16 11:29:01+00:00,229.5114,0.2,12.49,47.84626,-54.09684
2020-01-16 11:39:01+00:00,237.8765,0.21,12.49,47.84626,-54.09684
2020-01-16 11:49:01+00:00,236.3664,0.2,12.49,47.84626,-54.09684
2020-01-16 11:59:01+00:00,237.7697,0.1,12.49,47.84626,-54.09684
2020-01-16 12:09:01+00:00,246.6298,0.1,12.49,47.84626,-54.09684
2020-01-16 12:19:01+00:00,249.4781,0.09,14.0,47.84626,-54.09684
2020-01-16 12:29:01+00:00,248.6381,0.06,14.0,47.84626,-54.09684
2020-01-16 12:39:01+00:00,254.4331,0.08,14.0,47.84626,-54.09684
2020-01-16 12:49:01+00:00,262.3164,0.16,14.0,47.84626,-54.09684
2020-01-16 12:59:01+00:00,262.8181,0.38,14.0,47.84626,-54.09684
2020-01-16 13:09:01+00:00,269.5547,0.64,14.0,47.84626,-54.09684
2020-01-16 13:19:01+00:00,280.7781,0.86,14.96,47.84626,-54.09684
2020-01-16 13:29:01+00:00,284.3497,0.95,14.96,47.84626,-54.09684
2020-01-16 13:39:01+00:00,286.8881,1.04,14.96,47.84626,-54.09684
2020-01-16 13:49:01+00:00,300.4363,1.23,14.96,47.84626,-54.09684
2020-01-16 13:59:01+00:00,314.973,1.27,14.96,47.84626,-54.09684
2020-01-16 14:09:01+00:00,312.6564,1.2,14.96,47.84626,-54.09684
2020-01-16 14:19:01+00:00,317.3314,1.2,14.96,47.84626,-54.09684
2020-01-16 14:29:01+00:00,332.8729,1.12,14.96,47.84626,-54.09684
2020-01-16 14:39:01+00:00,342.4447,1.1,14.96,47.84626,-54.09684
2020-01-16 14:49:01+00:00,343.8763,1.1,14.96,47.84626,-54.09684
2020-01-16 14:59:01+00:00,351.6564,1.1,14.96,47.84626,-54.09684
2020-01-16 15:09:01+00:00,359.9612,1.13,14.96,47.84626,-54.09684
2020-01-16 15:19:01+00:00,361.7012,1.1,14.88,47.84626,-54.09684
2020-01-16 15:29:01+00:00,361.4547,1.1,14.88,47.84626,-54.09684
2020-01-16 15:39:01+00:00,363.3379,1.1,14.88,47.84626,-54.09684
2020-01-16 15:49:01+00:00,366.0447,1.1,14.88,47.84626,-54.09684
2020-01-16 15:59:01+00:00,367.8446,1.1,14.88,47.84626,-54.09684
2020-01-16 16:09:01+00:00,372.6579,1.1,14.88,47.84626,-54.09684
2020-01-16 16:19:01+00:00,375.7011,1.0,14.72,47.84626,-54.09684
2020-01-16 16:29:01+00:00,373.1728,0.94,14.72,47.84626,-54.09684
2020-01-16 16:39:01+00:00,372.7812,0.9,14.72,47.84626,-54.09684
2020-01-16 16:49:01+00:00,366.87800000000004,0.8,14.72,47.84626,-54.09684
2020-01-16 16:59:01+00:00,358.6497,0.7,14.72,47.84626,-54.09684
2020-01-16 17:09:01+00:00,356.2213,0.7,14.72,47.84626,-54.09684
2020-01-16 17:19:01+00:00,355.9698,0.76,14.64,47.84626,-54.09684
2020-01-16 17:29:01+00:00,353.3079,0.8,14.64,47.84626,-54.09684
2020-01-16 17:39:01+00:00,347.398,0.84,14.64,47.84626,-54.09684
2020-01-16 17:49:01+00:00,346.8097,0.9,14.64,47.84626,-54.09684
2020-01-16 17:59:01+00:00,346.9479,0.98,14.64,47.84626,-54.09684
2020-01-16 18:09:01+00:00,345.0496,1.0,14.64,47.84626,-54.09684
2020-01-16 18:19:01+00:00,344.4463,1.03,14.48,47.84626,-54.09684
2020-01-16 18:29:01+00:00,338.2564,1.1,14.48,47.84626,-54.09684
2020-01-16 18:39:01+00:00,330.8596,1.1,14.48,47.84626,-54.09684
2020-01-16 18:49:01+00:00,321.2963,1.1,14.48,47.84626,-54.09684
2020-01-16 18:59:01+00:00,308.9714,1.16,14.48,47.84626,-54.09684
2020-01-16 19:09:01+00:00,297.6014,1.18,14.48,47.84626,-54.09684
2020-01-16 19:19:01+00:00,290.388,1.19,14.32,47.84626,-54.09684
2020-01-16 19:29:01+00:00,288.9931,1.19,14.32,47.84626,-54.09684
2020-01-16 19:39:01+00:00,284.7064,1.2,14.32,47.84626,-54.09684
2020-01-16 19:49:01+00:00,271.303,1.18,14.32,47.84626,-54.09684
2020-01-16 19:59:01+00:00,261.1131,1.12,14.32,47.84626,-54.09684
2020-01-16 20:09:01+00:00,252.4681,1.14,14.32,47.84626,-54.09684
2020-01-16 20:19:01+00:00,239.5098,1.2,13.68,47.84626,-54.09684
2020-01-16 20:29:01+00:00,225.6998,1.19,13.68,47.84626,-54.09684
2020-01-16 20:39:01+00:00,218.72299999999998,1.26,13.68,47.84626,-54.09684
2020-01-16 20:49:01+00:00,220.1514,1.4,13.68,47.84626,-54.09684
2020-01-16 20:59:01+00:00,220.3431,1.57,13.68,47.84626,-54.09684
2020-01-16 21:09:01+00:00,218.8398,1.73,13.68,47.84626,-54.09684
2020-01-16 21:19:01+00:00,215.9914,1.9,13.21,47.84626,-54.09684
2020-01-16 21:29:01+00:00,211.6447,2.0,13.21,47.84626,-54.09684
2020-01-16 21:39:01+00:00,208.8448,2.08,13.21,47.84626,-54.09684
2020-01-16 21:49:01+00:00,211.1648,2.1,13.21,47.84626,-54.09684
2020-01-16 21:59:01+00:00,210.4331,2.1,13.21,47.84626,-54.09684
2020-01-16 22:09:01+00:00,210.5815,2.16,13.21,47.84626,-54.09684
2020-01-16 22:19:01+00:00,214.6014,2.19,12.89,47.84626,-54.09684
2020-01-16 22:29:01+00:00,217.3065,2.2,12.89,47.84626,-54.09684
2020-01-16 22:39:01+00:00,218.4815,2.19,12.89,47.84626,-54.09684
2020-01-16 22:49:01+00:00,219.4448,2.19,12.89,47.84626,-54.09684
2020-01-16 22:59:01+00:00,217.1081,2.19,12.89,47.84626,-54.09684
2020-01-16 23:09:01+00:00,218.7865,1.9,12.89,47.84626,-54.09684
2020-01-16 23:19:01+00:00,222.8348,1.7,12.73,47.84626,-54.09684
2020-01-16 23:29:01+00:00,225.3814,1.5,12.73,47.84626,-54.09684
2020-01-16 23:39:01+00:00,227.4781,1.3,12.73,47.84626,-54.09684
2020-01-16 23:49:01+00:00,230.2231,1.1,12.73,47.84626,-54.09684
2020-01-16 23:59:01+00:00,231.3498,1.0,12.73,47.84626,-54.09684
